Location: Presov
(49.0000°N, 21.2500°E)
Time: 12:06:10
(UTC+02:00)

ISS - Pass Details

Date: 09 July 2022
Orbit: 412 x 420 km, 51.6° (Epoch: 17 August)

Event Time Altitude Azimuth Distance (km) Brightness Sun altitude
Rises 03:15:46 0° 284° (WNW) 2,363 -0.2 -10.7°
Reaches altitude 10° 03:17:53 10° 288° (WNW) 1,500 -1.1 -10.4°
Maximum altitude 03:21:13 57° 8° (N) 502 -3.0 -10.1°
Drops below altitude 10° 03:24:33 10° 89° (E) 1,504 -0.4 -9.8°
Sets 03:26:41 0° 93° (E) 2,369 0.6 -9.6°
